www.pogodaiklimat.ru

Погода и климат >> Архив погоды >> Россия >> Московская область >> Сергиев Посад


ПОГОДА в Сергиевом Посаде

  • Прогноз погоды в Сергиевом Посаде
  • Монитор погоды в Сергиевом Посаде

АРХИВ ПОГОДЫ в Сергиевом Посаде

Время (UTC), дата Ветер
(напр.,м/с)
 
Видим.   Явления Облачность Т
(С)
Тd
(С)
f
(%)
Тe
(С)
Тes
(С)
Комфортность P
(гПа)
Po
(гПа)
Тmin
(С)
Tmax
(С)
R
(мм)
R24
(мм)
S
(см)
00 18.03 Ю 2 н/о н/о +0.3 -1.3 89 -3 -3 по сезону 1017.8 987.3
03 18.03 Ю 2 н/о н/о +0.5 -1.0 90 -3 -3 по сезону 1018.3 987.8 +0.1
06 18.03 Ю 2 н/о н/о +1.0 -0.5 90 -3 -3 по сезону 1019.1 988.7 +0.1
09 18.03 Ю 3 н/о н/о +4.2 -1.2 68 +1 +1 тепло 1019.5 989.4
12 18.03 Ю 3 н/о н/о +5.6 -1.5 60 +3 +3 тепло 1018.9 989.0
15 18.03 Ю 3 н/о н/о +4.1 -1.5 67 +1 +1 по сезону 1018.3 988.2
18 18.03 Ю 4 н/о н/о +0.8 -1.5 85 -4 -4 по сезону 1019.1 988.6 +5.7
21 18.03 Ю 4 н/о н/о +1.0 -1.5 83 -4 -4 по сезону 1019.6 989.2
00 19.03 Ю 3 н/о н/о +1.1 -0.3 90 -3 -3 по сезону 1018.8 988.4
03 19.03 Ю 3 н/о н/о +1.1 +0.2 94 -4 -4 по сезону 1017.5 987.2 +0.6
06 19.03 Ю 3 н/о н/о +1.7 +0.4 91 -3 -3 по сезону 1017.4 987.1 +0.6
09 19.03 Ю 1 н/о н/о +1.9 +0.8 92 0 0 по сезону 1018.0 987.8
12 19.03 ЮЗ 1 н/о н/о +2.5 +1.8 95 +1 +1 по сезону 1018.9 988.7
15 19.03 Ю 1 н/о н/о +2.6 +2.0 96 +1 +1 по сезону 1019.7 989.5
18 19.03 Ю 1 н/о н/о +2.2 +1.7 96 0 0 по сезону 1020.6 990.3 +2.7
21 19.03 Ю 2 н/о н/о +1.9 +1.5 97 -2 -2 по сезону 1020.9 990.5
00 20.03 Ю 2 н/о н/о +1.5 +0.7 94 -2 -2 по сезону 1021.1 990.7
03 20.03 ЮЗ 3 н/о н/о +1.5 +0.2 91 -3 -3 по сезону 1021.0 990.6 +1.4
06 20.03 З 3 н/о н/о +1.3 -0.5 88 -3 -3 по сезону 1021.9 991.4 +1.0
09 20.03 З 5 н/о н/о +3.6 -2.0 67 -1 -1 по сезону 1021.8 991.6
12 20.03 З 4 н/о н/о +2.9 -2.8 66 -1 -1 по сезону 1022.4 992.1
15 20.03 З 3 н/о н/о +2.5 -3.3 66 -1 -1 по сезону 1022.3 992.0
18 20.03 ЮЗ 2 н/о н/о +1.0 -3.3 73 -2 -2 по сезону 1022.9 992.4 +3.9
21 20.03 З 2 н/о н/о +0.1 -3.0 80 -3 -3 по сезону 1022.2 991.6
00 21.03 З 2 н/о н/о -0.7 -3.3 83 -4 -4 по сезону 1021.4 990.7
03 21.03 ЮЗ 2 н/о н/о -1.5 -3.8 84 -5 -5 по сезону 1020.2 989.5 -2.3
06 21.03 Ю 1 н/о н/о -0.4 -3.5 80 -2 -2 по сезону 1019.4 988.8 -2.3
09 21.03 ЮЗ 3 н/о н/о +2.8 -3.8 62 -1 -1 по сезону 1018.7 988.5
12 21.03 ЮЗ 2 н/о н/о +2.6 -3.0 67 -0 -0 по сезону 1018.4 988.2
15 21.03 ЮЗ 2 н/о н/о +1.6 -2.5 74 -2 -2 по сезону 1018.6 988.3
18 21.03 ЮЗ 1 н/о н/о +1.0 -2.3 79 -1 -1 по сезону 1019.0 988.6 +3.4
21 21.03 ЮЗ 2 н/о н/о +0.5 -2.3 81 -3 -3 по сезону 1018.0 987.6
00 22.03 Ю 1 н/о н/о +0.2 -2.2 84 -2 -2 по сезону 1015.9 985.5
03 22.03 Ю 2 н/о н/о +0.3 -2.0 85 -3 -3 по сезону 1011.9 981.7 -0.1
06 22.03 Ю 3 н/о н/о +0.2 -0.8 93 -5 -5 по сезону 1007.7 977.5 -0.1
09 22.03 Ю 2 н/о н/о +0.6 -0.2 94 -3 -3 по сезону 1004.3 974.3
12 22.03 СЗ 5 н/о н/о +0.5 -0.8 91 -6 -6 холодно 1006.0 975.9
15 22.03 СЗ 5
{14}
н/о н/о -0.3 -1.6 91 -7 -7 прохладно 1008.5 978.2
18 22.03 СЗ 4
{14}
н/о н/о -1.0 -1.6 96 -7 -7 прохладно 1010.4 980.0 +1.1
21 22.03 СЗ 3
{12}
н/о н/о -0.9 -1.5 96 -6 -6 по сезону 1011.6 981.2
00 23.03 СВ 2 н/о н/о -0.3 -0.6 98 -4 -4 по сезону 1014.3 983.9
03 23.03 СВ 1 н/о н/о -0.2 -1.0 94 -2 -2 по сезону 1018.7 988.1 -1.1
06 23.03 С 2 н/о н/о +0.6 -0.8 90 -3 -3 по сезону 1022.0 991.4 -1.1
09 23.03 СВ 2 н/о н/о +4.3 -1.5 66 +2 +2 тепло 1022.4 992.2
12 23.03 штиль 0 н/о н/о +3.8 -2.0 66 +3 +3 по сезону 1022.4 992.2
15 23.03 штиль 0 н/о н/о +2.9 -2.3 69 +2 +2 по сезону 1021.9 991.6
18 23.03 штиль 0 н/о н/о -0.8 -1.8 93 -2 -2 по сезону 1021.5 990.8 +5.0
21 23.03 штиль 0 н/о н/о -2.1 -3.2 92 -3 -3 по сезону 1019.7 988.9
00 24.03 Ю 1 н/о н/о -2.4 -3.8 90 -5 -5 по сезону 1017.5 986.7
03 24.03 Ю 2 н/о н/о -0.7 -4.0 78 -4 -4 по сезону 1013.6 983.2 -2.9
06 24.03 Ю 2 н/о н/о -0.9 -2.3 90 -5 -5 по сезону 1011.7 981.3 -2.9
09 24.03 Ю 2 н/о н/о 0.0 -1.0 93 -4 -4 по сезону 1008.7 978.6

 

Местоположение метеостанции Сергиев Посад (Московская область, Россия): широта 56.33 долгота 38.13 высота над уровнем моря 242 м.

В архиве по умолчанию представлена погода в Сергиевом Посаде за последнюю неделю. Архивные данные за месяц целиком и за предыдущие месяцы, начиная с января 2011 года, Вы можете получить, выбрав интересующий диапазон дат из раскрывающегося списка и нажав кнопку "Ввод!".


*Определитесь, кто Вы:
робот инопланетянин человек

Внимание! Время в таблицах - всемирное. Для получения местного времени необходимо прибавить поправку, которая равна 3 ч.

Смотрите также архив погоды в соседних городах и на ближайших метеорологических станциях:

Погода в Дмитрове (Московская область, Россия) (35 км)
Погода в Пушкино (Московская область, Россия) (38 км)
Погода в Александрове (Владимирская область, Россия) (39 км)
Погода в Луговой (Московская область, Россия) (51 км)
Погода в Талдоме (Московская область, Россия) (57 км)
Погода в Долгопрудном (Московская область, Россия) (58 км)
Погода в Шереметьево (Московская область, Россия) (59 км)
Погода в Переславль-Залесском (Ярославская область, Россия) (60 км)
Погода в Электростали (Московская область, Россия) (63 км)
Погода в Москве (город Москва, Россия) (64 км)

Пояснения к столбцам:

Ветер - указаны скорость ветра в м/с - средняя за 10 мин, порывы в срок и между сроками (в фигурных скобках) и направление, откуда дует ветер: С - северный, СВ - северо-восточный, В - восточный, ЮВ - юго-восточный, Ю - южный, ЮЗ - юго-западный, З - западный, СЗ - северо-западный.
Видимость - горизонтальная дальность видимости в метрах или километрах. При видимости от 1 до 10 км при отсутствии осадков обычно наблюдается дымка, при ухудшении видимости до 1 км и менее - туман. В сухую погоду видимость может ухудшаться дымом, пылью или мглою.
Явления - указаны атмосферные явления, наблюдавшиеся в срок или в последний час перед сроком; фигурными скобками обозначены явления, наблюдавшиеся между сроками (за 1-3 часа до срока); квадратными скобками обозначены град или гололедные отложения с указанием их диаметра в мм.
Облачность - указаны через наклонную черту общая и нижняя облачность в баллах и высота нижней границы облаков в метрах; квадратными скобками обозначены формы облаков: Ci - перистые, Cs - перисто-слоистые, Cc - перисто-кучевые, Ac - высококучевые, As - высокослоистые, Sc - слоисто-кучевые, Ns - слоисто-дождевые, Cu - кучевые, Cb - кучево-дождевые. Подробнее классификацию облаков см. в Атласе облаков (PDF).
T - Температура воздуха - температура, измеренная на высоте 2 м над землей.
Td - Температура точки росы - температура, при понижении до которой содержащийся в воздухе водяной пар достигнет насыщения.
f - Относительная влажность воздуха - влажноcть воздуха, измеренная на высоте 2 м над землей.
Te - Эффективная температура - температура, которую ощущает одетый по сезону человек в тени. Характеристика душности погоды. При расчете учитывается влияние влажности воздуха и скорости ветра на теплоощущения человека.
Tes - Эффективная температура на солнце - температура, которую ощущает человек, с поправкой на солнечный нагрев. Характеристика знойности погоды. Зависит от высоты солнца над горизонтом, облачности и скорости ветра. Ночью, в пасмурную погоду, а также при ветре 12 м/с и более поправка равна нулю.
P - Атмосферное давление - приведенное к уровню моря атмосферное давление.
Po - Атмосферное давление - измеренное на уровне метеостанции атмосферное давление.
Tmin - Минимальная температура - минимум температуры воздуха на высоте 2 м над землей.
Tmax - Максимальная температура - максимум температуры воздуха на высоте 2 м над землей.
R - Количество осадков - Количество выпавших осадков за период времени, мм. При наведении курсора мыши на число - период времени, за который выпало указанное количество осадков.
R24 - Количество осадков - Количество выпавших осадков за 24 часа, мм.
S - Снежный покров - Высота снежного покрова, см. При наведении курсора мыши на число - состояние снежного покрова и степень покрытия местности в баллах.